Location: Lane
(33.5226°N, 79.8788°W)
Time: 19:58:04
(UTC+00:00)

Courier 1B Rocket - Pass Details

Date: 05 October 2022
Orbit: 920 x 1202 km, 28.3° (Epoch: 01 December)

Event Time Altitude Azimuth Distance (km) Brightness Sun altitude
Rises 20:44:02 0° 210° (SSW) 3,987 9.0 26.1°
Reaches altitude 10° 20:47:57 10° 192° (SSW) 2,979 8.2 25.3°
Maximum altitude 20:52:29 18° 153° (SSE) 2,400 7.2 24.5°
Drops below altitude 10° 20:56:52 10° 114° (ESE) 2,851 7.1 23.7°
Sets 21:00:29 0° 96° (E) 3,749 7.6 23.0°
